Regional Weather Roundup
Issued by NWS Midland/Odessa, TX

Skip options and go directly to product.
Home | Oldest Version | Next Version | Current Version | All | Text Only | Save Text | Print | Product List | Glossary On

Skip product version selection by date and time.   
814
ASUS44 KMAF 180910
RWRMAF
MIDLAND AREA WEATHER ROUNDUP
NATIONAL WEATHER SERVICE MIDLAND TX
300 AM CST THU DEC 18 2014

...IN SOUTHWEST TEXAS AND SOUTHEAST NEW MEXICO...

CITY           SKY/WX    TMP DP  RH WIND       PRES   REMARKS
ALPINE         CLEAR     34  26  74 SW8       30.19S WCI  27
ANDREWS        FAIR      45  30  55 W7        30.07S
ARTESIA        CLEAR     41  30  65 N3        30.07S
BIG SPRING     CLEAR     39  36  90 SE3       30.09R
CARLSBAD       CLEAR     51  33  50 W12       30.07R
DRYDEN           N/A     48  46  93 W5        30.07F
FORT STOCKTON  CLEAR     45  29  53 SW12      30.10R WCI  39
GUAD PASS      NOT AVBL
HOBBS          CLEAR     39  30  70 W7        30.08R WCI  34
MARFA          CLEAR     27  21  80 N7        30.15S WCI  19
MIDLAND AIRPK  CLEAR     47  37  68 W7        30.08S
MIDLAND INTL   CLEAR     42  37  82 SW8       30.07S WCI  37
ODESSA         CLEAR     43  35  73 W6        30.08S WCI  39
PECOS          CLEAR     38  27  64 CALM      30.10S
PRESIDIO       FAIR      45  31  56 N3        30.10S
SEMINOLE       CLEAR     40  31  69 NW8       30.07R WCI  35
SNYDER         FOG       37  37 100 S7        30.05F VSB 3/4 WCI  31
WINK           CLEAR     46  28  49 SW12      30.07R
$$
...OTHER STATIONS IN TEXAS...

CITY           SKY/WX    TMP DP  RH WIND       PRES   REMARKS
ABILENE        CLEAR     48  46  93 S5        30.06S
AMARILLO       FOG       35  35 100 SW10      29.99R VSB 1/2 WCI  27
AUSTIN         DRIZZLE   49  48  97 N8        30.10S FOG
BROWNSVILLE    CLOUDY    71  68  90 S8        30.01F
CORPUS CHRISTI CLOUDY    68  66  93 SE9       30.01F
DALLAS FTW     DRIZZLE   42  41  96 E5        30.12S FOG     WCI  39
DEL RIO        CLOUDY    53  52  96 NW6       30.07S FOG
EL PASO        PTCLDY    41  34  76 SE9       30.13R WCI  35
HOUSTON INT    CLOUDY    61  57  88 NE5       30.07S
LUBBOCK        CLEAR     33  31  92 W6        30.02S WCI  28
SAN ANGELO     CLOUDY    50  48  93 SW12      30.08S
SAN ANTONIO    DRZL/FOG  57  56  96 N3        30.06S VSB 1/2
WACO           CLOUDY    46  45  96 E3        30.12S FOG
WICHITA FALLS  NOT AVBL
$$
...OTHER LOCATIONS IN NEW MEXICO...

CITY           SKY/WX    TMP DP  RH WIND       PRES   REMARKS
ALAMAGORDO     CLOUDY    45  36  70 SE5       30.12S
ALBUQUERQUE    PTCLDY    32  30  92 E6        30.12R WCI  26
CANNON AFB     CLEAR     37  30  75 NW13      30.01S WCI  29
CLOVIS         CLEAR     36  28  75 W12       30.00S WCI  27
HOLLOMAN AFB   DRIZZLE   46  36  68 E2        30.11R
ROSWELL        CLEAR     32  27  81 SW6       30.07S WCI  26
RUIDOSO        MOCLDY    36  23  60 W20       30.09F WCI  25
SANTA FE       PTCLDY    28  25  88 SW5       30.08R WCI  23
TRUTH OR CONSE CLOUDY    40  28  62 NW6       30.11R WCI  36
TUCUMCARI      CLEAR     29  25  85 N6        29.99R WCI  23
$$

USA.gov is the U.S. government's official web portal to all federal, state and local government web resources and services.